Regional Weather Roundup
Issued by NWS

Home | Current Version | Previous Version | Text Only | Print | Product List | Glossary Off
Versions: 1 2 3 4 5 6 7 8 9 10 11 12 13 14 15 16 17 18 19 20 21 22 23 24 25 26 27 28 29 30 31 32 33 34 35 36 37 38 39 40 41 42 43 44 45 46 47 48 49 50

000
ASUS43 KFSD 170902
RWRSD

WEATHER ROUNDUP FOR SOUTH DAKOTA
NATIONAL WEATHER SERVICE SIOUX FALLS SD
300 AM CST WED JAN 17 2018

NOTE: "FAIR" INDICATES FEW OR NO CLOUDS BELOW 12,000 FEET WITH NO
SIGNIFICANT WEATHER AND/OR OBSTRUCTIONS TO VISIBILITY.


SDZ001>005-009-010-012>017-171000-
NORTHWEST AND NORTH CENTRAL SOUTH DAKOTA

CITY           SKY/WX    TMP DP  RH WIND       PRES   REMARKS
BUFFALO          N/A      7  -2  66 S6        30.05F WCI  -3
FAITH            N/A      1  -3  83 W9        30.16S WCI -14
MOBRIDGE       PTCLDY     6   0  76 S5        30.20R WCI  -3
$$

SDZ012>016-024>037-041>051-057-063-072>074-171000-
SOUTHWEST AND SOUTH CENTRAL SOUTH DAKOTA

CITY           SKY/WX    TMP DP  RH WIND       PRES   REMARKS
RAPID CTY ARPT PTCLDY     9   0  67 CALM      30.14S
PIERRE         CLEAR      6   1  80 SE7       30.24F WCI  -6
CUSTER         PTCLDY    27 -12  18 W6        30.14S WCI  20
ELLSWORTH AFB  PTCLDY    10   0  63 W6        30.12F WCI   0
PHILIP         CLEAR      4   0  83 CALM      30.20F
PINE RIDGE     CLEAR     14   5  67 SW7       30.22S WCI   4
SPEARFISH        N/A     25   5  42 SW5       30.14R WCI  19
WINNER         FAIR      18   5  57 SW18G26   30.25F WCI   2
$$

SDZ004>011-016>023-039-040-171000-
NORTHEAST SOUTH DAKOTA

CITY           SKY/WX    TMP DP  RH WIND       PRES   REMARKS
ABERDEEN       CLEAR      3  -2  79 S9        30.31S WCI -12
WATERTOWN      CLOUDY     4  -1  80 S10       30.30F WCI -11
BROOKINGS      CLOUDY     3  -2  79 S13       30.35F WCI -14
SISSETON         N/A     16   1  51 VRB5      30.27F WCI   9
$$

SDZ017-020-022-023-036>040-048>070-171000-
SOUTHEAST SOUTH DAKOTA

CITY           SKY/WX    TMP DP  RH WIND       PRES   REMARKS
SIOUX FALLS    CLOUDY     6   0  76 S13       30.41F WCI -10
HURON          CLEAR      3  -2  79 S13       30.34S WCI -14
CHAMBERLAIN    CLEAR      8   2  78 S8        30.29F WCI  -5
MITCHELL       CLEAR      4  -2  76 S13       30.38F WCI -13
YANKTON        CLOUDY     9   1  70 S13       30.43F WCI  -7
$$

ABBREVIATIONS USED IN REMARKS
   TC - TEMPERATURE IN CELSIUS
  WCI - WIND CHILL INDEX
   HX - HEAT INDEX
  VSB - VISIBILITY




USA.gov is the U.S. government's official web portal to all federal, state and local government web resources and services.